Bookmark and Share
Track history (hours):
 

Plato

Last reported at 2014-Apr-20 11:31 UTC. Time now 2014-Apr-20 16:06 UTC.
Position N 57°48' E 010°12'.

Length 88 m; draft 4.8 m.

Type: Cargo ship. MMSI: 314189000.

NotesDate/timePositionNaut miles runAvg speedWind from/ knotsBaromVisibWave heightAir tempDewpointWater temp
2014-Apr-20 11:31N 57°48' E 010°12'9 9.0
2014-Apr-20 10:33N 57°48' E 010°28'9 9.3
2014-Apr-20 09:33N 57°47' E 010°46'10 9.1
2014-Apr-20 08:28N 57°41' E 010°60'8 9.3
2014-Apr-20 07:33N 57°35' E 011°12'10 9.7
2014-Apr-20 06:33N 57°29' E 011°25'1010.1
2014-Apr-20 05:33N 57°19' E 011°32'10 9.8
2014-Apr-20 04:32N 57°10' E 011°38'10 9.9
2014-Apr-20 03:33N 57°01' E 011°45'9 9.4
2014-Apr-20 02:33N 56°52' E 011°51'9 9.4
2014-Apr-20 01:33N 56°44' E 011°60'9 9.4
2014-Apr-20 00:33N 56°36' E 012°08'30 9.2
2014-Apr-19 21:13N 56°08' E 012°32'711.1
2014-Apr-19 20:33N 56°02' E 012°40'1110.5
2014-Apr-19 19:33N 55°52' E 012°44'1010.4
2014-Apr-19 18:33N 55°42' E 012°41'1110.8
2014-Apr-19 17:33N 55°31' E 012°43'8 8.5
2014-Apr-19 16:33N 55°23' E 012°41'7 6.6
2014-Apr-19 15:33N 55°17' E 012°48'8 8.3
2014-Apr-19 14:33N 55°16' E 013°02'8 8.4
2014-Apr-19 13:33N 55°15' E 013°17'8 8.3
2014-Apr-19 12:33N 55°15' E 013°32'8 8.5
2014-Apr-19 11:33N 55°14' E 013°47'9 9.0
2014-Apr-19 10:33N 55°14' E 014°02'9 8.8
2014-Apr-19 09:33N 55°15' E 014°18'9 9.1
2014-Apr-19 08:33N 55°21' E 014°29'9 8.5
2014-Apr-19 07:33N 55°26' E 014°42'10 9.9
2014-Apr-19 06:33N 55°24' E 014°59'9 9.2
2014-Apr-19 05:32N 55°22' E 015°15'10 8.9
2014-Apr-19 04:22N 55°20' E 015°33'89 9.1
2014-Apr-18 18:32N 55°01' E 018°06'9 9.4
2014-Apr-18 17:34N 54°59' E 018°22'9 9.1
2014-Apr-18 16:33N 54°57' E 018°37'9 9.3
2014-Apr-18 15:33N 54°51' E 018°49'9 8.8
2014-Apr-18 14:33N 54°44' E 018°60'9 9.2
2014-Apr-18 13:33N 54°36' E 018°54'8 8.3
2014-Apr-18 12:33N 54°32' E 018°41'5 4.5
2014-Apr-18 11:31N 54°32' E 018°33'0 0.0
2014-Apr-18 10:31N 54°32' E 018°33'0 0.0
2014-Apr-18 09:31N 54°32' E 018°33'0 0.0
2014-Apr-18 08:33N 54°32' E 018°33'0 0.0
2014-Apr-18 07:33N 54°32' E 018°33'0 0.0
2014-Apr-18 06:32N 54°32' E 018°33'0 0.0
2014-Apr-18 05:32N 54°32' E 018°33'0 0.0
2014-Apr-18 04:31N 54°32' E 018°33'0 0.0
2014-Apr-18 03:30N 54°32' E 018°33'0 0.0
2014-Apr-18 02:33N 54°32' E 018°33'0 0.0
2014-Apr-18 01:32N 54°32' E 018°33'0 0.0
2014-Apr-18 00:32N 54°32' E 018°33'0 0.0
2014-Apr-17 23:31N 54°32' E 018°33'0 0.0
2014-Apr-17 22:31N 54°32' E 018°33'0 0.0
2014-Apr-17 21:32N 54°32' E 018°33'0 0.0
2014-Apr-17 20:31N 54°32' E 018°33'0 0.0
2014-Apr-17 19:33N 54°32' E 018°33'0 0.0
2014-Apr-17 18:33N 54°32' E 018°33'0 0.0
2014-Apr-17 17:32N 54°32' E 018°33'0 0.0
2014-Apr-17 16:32N 54°32' E 018°33'0 0.0
2014-Apr-17 15:31N 54°32' E 018°33'0 0.0
2014-Apr-17 14:34N 54°32' E 018°33'0 0.0
2014-Apr-17 13:33N 54°32' E 018°33'0 0.0
2014-Apr-17 12:32N 54°32' E 018°33'0 0.0
2014-Apr-17 11:32N 54°32' E 018°33'0 0.0
2014-Apr-17 10:31N 54°32' E 018°33'0 0.0
2014-Apr-17 09:33N 54°32' E 018°33'4 4.1
2014-Apr-17 08:34N 54°32' E 018°40'9 8.9
2014-Apr-17 07:33N 54°37' E 018°54'9 9.2
2014-Apr-17 06:33N 54°46' E 018°54'9 9.4
2014-Apr-17 05:33N 54°54' E 018°45'1010.2
2014-Apr-17 04:33N 54°57' E 018°28'1010.1
2014-Apr-17 03:33N 54°57' E 018°10'1010.0
2014-Apr-17 02:33N 54°56' E 017°53'1010.1
2014-Apr-17 01:33N 54°54' E 017°35'1110.1
2014-Apr-17 00:27N 54°52' E 017°17'102 9.9
2014-Apr-16 14:09N 54°36' E 014°22'610.1
2014-Apr-16 13:33N 54°38' E 014°12'1010.2
2014-Apr-16 12:33N 54°41' E 013°55'1110.6
2014-Apr-16 11:33N 54°44' E 013°38'1110.7
2014-Apr-16 10:33N 54°45' E 013°19'1010.0
2014-Apr-16 09:31N 54°45' E 013°01'1010.0
2014-Apr-16 08:33N 54°43' E 012°45'1010.3
2014-Apr-16 07:33N 54°37' E 012°30'1110.9
2014-Apr-16 06:33N 54°30' E 012°17'10 9.6
2014-Apr-16 05:33N 54°25' E 012°03'1110.6
2014-Apr-16 04:33N 54°25' E 011°45'1010.5
2014-Apr-16 03:33N 54°30' E 011°28'  
2014-Apr-12 00:28N 56°39' E 011°45'8 8.3
2014-Apr-11 23:30N 56°46' E 011°52'9 9.0
2014-Apr-11 22:32N 56°54' E 011°46'17 8.6
2014-Apr-11 20:33N 57°10' E 011°35'9 9.1
2014-Apr-11 19:33N 57°18' E 011°29'1010.3
2014-Apr-11 18:33N 57°28' E 011°20'9 9.5
2014-Apr-11 17:33N 57°35' E 011°09'10 9.1
2014-Apr-11 16:28N 57°42' E 010°55'8 9.0
2014-Apr-11 15:33N 57°47' E 010°44'1110.6
2014-Apr-11 14:33N 57°47' E 010°24'126 9.0
2014-Apr-11 00:31N 58°00' E 006°28'9 8.9
2014-Apr-10 23:33N 58°07' E 006°17'9 9.3
2014-Apr-10 22:33N 58°13' E 006°04'10 9.7
2014-Apr-10 21:33N 58°20' E 005°51'10 9.7
2014-Apr-10 20:33N 58°27' E 005°39'28 9.2
2014-Apr-10 17:33N 58°49' E 005°08'12 8.8
2014-Apr-10 16:12N 58°59' E 004°55'  

Dump ship's entire track history

sailing weather and tide predictions

Plato — 8PRX — position and weather